Jerome, ID

8:07 AM MST on December 18, 2017 (GMT -0700)
Jerome County

Weather History for KJER - March, 2014

Change the Weather History Date:

Saturday, March 8, 2014

  Actual Average Record
Temperature  
Mean Temperature 44 °F 38 °F  
Max Temperature 58 °F 48 °F 66 °F (2005)
Min Temperature 29 °F 28 °F 7 °F (1985)
Degree Days  
Heating Degree Days 21 27  
Month to date heating degree days 163 227  
Since 1 July heating degree days 4831 5114  
Cooling Degree Days 0 0  
Month to date cooling degree days 0 0  
Year to date cooling degree days 0 0  
Moisture  
Dew Point 30 °F    
Average Humidity 60    
Maximum Humidity 85    
Minimum Humidity 35    
Precipitation  
Precipitation 0.00 in 0.02 in 0.94 in (1943)
Month to date precipitation 0.46 0.20  
Year to date precipitation 2.80 2.14  
Sea Level Pressure  
Sea Level Pressure 30.31 in    
Wind  
Wind Speed 9 mph (ENE)    
Max Wind Speed 18 mph    
Max Gust Speed 23 mph    
Visibility 10 miles    
Events      
T = Trace of Precipitation, MM = Missing Value Source: NWS Daily Summary

Daily Weather History Graph

Daily Weather History Graph

Search for Another Location

Airport or City:

Trip Planner

Search our weather history database for the weather conditions in past years. The results will help you decide how hot, cold, wet, or windy it might be!

Date:

Astronomy

Mar. 08, 2014 Rise Set
Actual Time 7:01 AM MST 6:36 PM MST
Civil Twilight 6:33 AM MST 7:04 PM MST
Nautical Twilight 6:00 AM MST 7:36 PM MST
Astronomical Twilight 5:27 AM MST 8:10 PM MST
Moon 11:37 AM MST (3/8) 1:45 AM MST (3/8)
Length of Visible Light 12h 30m
Length of Day
11h 34m
First Quarter, 52% of the Moon is Illuminated
Mar 8
First Quarter
Mar 16
Full
Mar 23
Last Quarter
Mar 30
New
Apr 7
First Quarter

Hourly Weather History & Observations

Time (MST) Temp. Windchill Dew Point Humidity Pressure Visibility Wind Dir Wind Speed Gust Speed Precip Events Conditions
12:53 AM 35.1 °F 29.3 °F 28.9 °F 78% 30.32 in 10.0 mi SSE 6.9 mph - N/A   Clear
1:53 AM 35.1 °F 29.3 °F 28.9 °F 78% 30.33 in 10.0 mi South 6.9 mph - N/A   Clear
2:53 AM 34.0 °F 28.0 °F 28.0 °F 79% 30.33 in 10.0 mi SE 6.9 mph - N/A   Clear
3:53 AM 32.0 °F 25.6 °F 27.0 °F 82% 30.32 in 10.0 mi ESE 6.9 mph - N/A   Clear
4:53 AM 32.0 °F 25.6 °F 27.0 °F 82% 30.32 in 10.0 mi ESE 6.9 mph - N/A   Clear
5:53 AM 33.1 °F 26.9 °F 27.0 °F 78% 30.33 in 10.0 mi East 6.9 mph - N/A   Clear
6:53 AM 30.0 °F 25.2 °F 26.1 °F 85% 30.38 in 10.0 mi North 4.6 mph - N/A   Clear
7:53 AM 33.1 °F 24.9 °F 28.9 °F 85% 30.40 in 10.0 mi NE 10.4 mph - N/A   Clear
8:53 AM 39.9 °F 35.1 °F 30.9 °F 70% 30.40 in 10.0 mi NE 6.9 mph - N/A   Clear
9:53 AM 44.1 °F 40.8 °F 30.0 °F 58% 30.39 in 10.0 mi East 5.8 mph - N/A   Clear
10:53 AM 46.9 °F - 30.9 °F 54% 30.39 in 10.0 mi East 6.9 mph - N/A   Clear
11:53 AM 50.0 °F - 28.9 °F 44% 30.37 in 10.0 mi Variable 3.5 mph - N/A   Clear
12:53 PM 51.1 °F - 28.0 °F 41% 30.35 in 10.0 mi Variable 4.6 mph - N/A   Clear
1:53 PM 53.1 °F - 28.9 °F 40% 30.30 in 10.0 mi Variable 5.8 mph - N/A   Clear
2:53 PM 55.0 °F - 28.9 °F 37% 30.28 in 10.0 mi ENE 9.2 mph - N/A   Clear
3:53 PM 55.9 °F - 28.9 °F 36% 30.26 in 10.0 mi ENE 11.5 mph - N/A   Clear
4:53 PM 57.0 °F - 30.9 °F 37% 30.24 in 10.0 mi East 9.2 mph - N/A   Clear
5:53 PM 55.0 °F - 33.1 °F 43% 30.24 in 10.0 mi NE 10.4 mph - N/A   Clear
6:53 PM 50.0 °F - 35.1 °F 57% 30.25 in 10.0 mi NNE 16.1 mph - N/A   Clear
7:53 PM 46.9 °F - 34.0 °F 61% 30.26 in 10.0 mi NE 16.1 mph - N/A   Clear
8:53 PM 46.0 °F 41.4 °F 32.0 °F 58% 30.25 in 10.0 mi NE 9.2 mph - N/A   Clear
9:53 PM 44.1 °F 38.1 °F 32.0 °F 63% 30.25 in 10.0 mi NE 11.5 mph - N/A   Clear
10:53 PM 41.0 °F 34.3 °F 32.0 °F 70% 30.23 in 10.0 mi NE 11.5 mph - N/A   Clear
11:53 PM 39.0 °F 32.8 °F 30.9 °F 73% 30.23 in 10.0 mi NE 9.2 mph - N/A   Clear